Regional Weather Roundup
Issued by NWS

Home | Current Version | Previous Version | Text Only | Print | Product List | Glossary On
Versions: 1 2 3 4 5 6 7 8 9 10 11 12 13 14 15 16 17 18 19 20 21 22 23 24 25 26 27 28 29 30 31 32 33 34 35 36 37 38 39 40 41 42 43 44 45 46 47 48 49 50
581
ASHW40 PHFO 181732
RWRHI

WEATHER ROUNDUP FOR HAWAII
NATIONAL WEATHER SERVICE HONOLULU HI
700 AM HST FRI AUG 18 2017

THIS IS AN AUTOMATED REPORT THAT HAS NOT BEEN QUALITY CONTROLLED.

NOTE..."FAIR" INDICATES FEW OR NO CLOUDS BELOW 12,000 FEET WITH NO
SIGNIFICANT WEATHER AND/OR OBSTRUCTIONS TO VISIBILITY.

* - THESE SITES REPORT LIMITED FIELDS
# - BUOY DATA PROVIDED BY PACIFIC ISLANDS OCEAN OBSERVING SYSTEM.

HIZ001>004-181800-
KAUAI-NIIHAU-

CITY           SKY/WX    TMP DP  RH WIND       PRES   REMARKS
LIHUE APT      MOCLDY    82  71  69 NE12      30.00S
PORT ALLEN*      N/A     75 N/A N/A NE9         N/A
POIPU*           N/A     77 N/A N/A NE3         N/A
PRINCEVILLE*     N/A     72 N/A N/A S2          N/A
KOKOLE POINT*  NOT AVBL
MOLOAA DAIRY*    N/A     73  70  88 SE1         N/A
WAIMEA HTS*    NOT AVBL
PUU OPAE*      NOT AVBL
PUU LUA*       NOT AVBL
MAKAHA RIDGE*    N/A     70  59  68 SE1         N/A
$$

HIZ005>011-181800-
OAHU-

CITY           SKY/WX    TMP DP  RH WIND       PRES   REMARKS
HONOLULU       MOSUNNY   80  67  64 NE9       29.97R
KALAELOA       SUNNY     76  67  73 NE5       29.98R
KANEOHE MCB    PTSUNNY   80  71  74 NE12      29.95R
WHEELER FIELD  FAIR      68  68  99 NW6       29.98R
BELLOWS*         N/A    N/A N/A N/A NE14        N/A
KAHUKU*          N/A    N/A N/A N/A NE7         N/A
WHEELER*       NOT AVBL
WAIANAE HARBOR NOT AVBL
DILLINGHAM*      N/A     68  66  94 NW1         N/A
KAHUKU TRN*      N/A     72  66  83 W5G12       N/A
KAWAILOA*        N/A     72  66  83 E6G14       N/A
KII*             N/A     79  70  73 E13G18      N/A
MAKUA RANGE*     N/A     75  68  78 NW5G10      N/A
OAHU FOREST NW NOT AVBL
SCHOFIELD BRK*   N/A     73  72  94 MISG        N/A
SCHOFIELD S*   NOT AVBL
WAIANAE VLY*   NOT AVBL
KUAOKALA*      NOT AVBL
HONOULIUULI*   NOT AVBL
MOKUOLOE IS*   NOT AVBL
PALEHUA*       NOT AVBL
WAIAWA PHB*    NOT AVBL
$$

HIZ012>013-181800-
MOLOKAI-

CITY           SKY/WX    TMP DP  RH WIND       PRES   REMARKS
MOLOKAI AIRPT  SUNNY    N/A N/A N/A NE8       29.99R
KALAUPAPA      NOT AVBL
MAKAPULAPAI*     N/A     81  70  69 E14         N/A
MOLOKAI 1*     NOT AVBL
PUU ALII*        N/A     59  59  99 N2G10       N/A
$$

HIZ016-181800-
KAHOOLAWE-

CITY           SKY/WX    TMP DP  RH WIND       PRES   REMARKS
KAHOOLAWE*     NOT AVBL
HAKIOAWA*        N/A     74  68  81 MISG      30.39S
HONOKANAIA*      N/A     76  66  71 N5G15     29.89S
KANELOA*         N/A     73  66  78 NE6G15    30.02S
KEALIALALO*    NOT AVBL
LUA MAKIKA*    NOT AVBL
$$

HIZ014>015-181800-
LANAI-

CITY           SKY/WX    TMP DP  RH WIND       PRES   REMARKS
LANAI CITY     PTSUNNY   70  66  87 NE7       30.03R
LANAI 1*       NOT AVBL
$$

HIZ017>028-181800-
MAUI-

CITY           SKY/WX    TMP DP  RH WIND       PRES   REMARKS
KAHULUI        MOSUNNY   76  68  76 CALM      29.97R
KAPALUA-W MAUI MOSUNNY   73  68  83 NE7       29.98R
HANA AIRPORT   LGT RAIN  75  72  88 CALM      30.01S
HANA*          NOT AVBL
HALEAKALA SUMM   N/A     54   3  13 E9          N/A
MAALAEA BAY*     N/A     77 N/A N/A N10         N/A
HALEAKALA*     NOT AVBL
KAUPO GAP*     NOT AVBL
KULA 1*          N/A     56   9  15 E5          N/A
$$

HIZ023>026-181800-
BIG ISLAND OF HAWAII COAST AND LOWER SLOPES-

CITY           SKY/WX    TMP DP  RH WIND       PRES   REMARKS
KAILUA KONA    SUNNY     76  63  64 E5        29.92R
HILO           LGT RAIN  71  66  84 SW6       29.97R
HONOKAA*         N/A     66 N/A N/A VRB1        N/A
KAWAIHAE MWT*    N/A     77 N/A N/A NE7         N/A
KAWAIHAE*        N/A     79 N/A N/A SE3       29.93R
SOUTH POINT*     N/A     70 N/A N/A NW6         N/A
UPOLU AIRPORT* NOT AVBL
KAMUELA*         N/A     66  61  82 NE15      30.05S
HAKALAU*         N/A     48  37  66 W3          N/A
KALOKO-HONOKO*   N/A     79  63  57 E3        29.92R
PALI 2*          N/A     68  57  68 S16G26      N/A
KEALAKOMO*       N/A     79  63  57 N16         N/A
KAUPULEHU*     NOT AVBL
KAPAPALA*        N/A     62  61  96 NW3         N/A
LOWER KAHUKU*    N/A     55  55 100 N2          N/A
PUHE CS*         N/A     77  57  50 E3G10       N/A
PUHO CS*         N/A     75  60  58 E2          N/A
PTA KEAMUKU*     N/A     64  55  72 SE10G16     N/A
WAIKOLOA*      NOT AVBL
$$

HIZ027>028-181800-
BIG ISLAND OF HAWAII INTERIOR AND SUMMMITS-

CITY           SKY/WX    TMP DP  RH WIND       PRES   REMARKS
BRADSHAW FIELD CLOUDY    55  22  28 SE6       30.27R
MK VISITOR CEN   N/A     57  12  17 VRB2        N/A
MAUNA KEA*       N/A     41   0  17 E3          N/A
MAUNA LOA*       N/A     46   3  17 MISG        N/A
MAUNA LOA 1*   NOT AVBL
PTA KIPUKA*      N/A     75  70  83 NW3G10      N/A
PTA RANGE 17*    N/A     63  54  72 W3          N/A
PTA WEST*        N/A     79  73  83 SE8         N/A
NENE CABIN*      N/A    N/A N/A N/A N5          N/A
AHUMOA*        NOT AVBL
PTA PORTABLE*  NOT AVBL
PUU MALI*        N/A    N/A N/A N/A NE10G16     N/A
$$

HIC003-181800-
NORTHWEST ISLANDS-

CITY           SKY/WX    TMP DP  RH WIND       PRES   REMARKS
MIDWAY ISLAND  PTCLDY    79  73  83 E12       30.10S
MIDWAY NOS*      N/A     81 N/A N/A MISG      30.09S
FRENCH FRIGATE NOT AVBL
$$

PHZ110>124-180-181800-
BUOY REPORTS

STATION/POSITION TIME  TEMP    WIND        PRES    WAVE   SWELL
                       AIR SEA DIR/SP/G            HT/PER HT/DIR
                 (UTC) (F)     (DEG/KT/KT) (MB)    (FT/S) (FT/D)
BUOY 51001       1710   80 81   70/ 12/ 14 1016.4
BUOY 51101       1650   80 81   60/ 14/ 16 1016.6R   5/ 8   3/ 90
BUOY 51100       NOT AVBL
BUOY 51002       1710   79 80   60/ 14/ 17 1012.6
BUOY 51003       1650   80 81   70/ 12/ 16 1013.2R   5/15   5/120
BUOY 51004       1650      80   40/ 17/ 21 1012.9R   6/14   5/130
WAIMEA BAY#      1702      78                N/A     3/ 8
MOKAPU POINT#    1704      80                N/A     4/ 8   2/130
LANAI#           NOT AVBL
BARBERS PT 2#    NOT AVBL
PAUWELA#         1709      80                N/A     5/ 8   2/ 60
HILO#            1657      80                N/A     5/ 8   2/110
KANEOHE BAY#     NOT AVBL
KANEOHE BAY 2#   NOT AVBL
HANALEI#         1652      81                N/A     4/ 8
KAHULUI HARBOR   1700   77 81   10/  4/  5 1015.0
HONOLULU HARBOR  1700   78 80   70/  2/  5 1015.7
PEARL HARBOR#    1700      80                N/A     3/15   2/150
KILO NALU        NOT AVBL
HILO HARBOR      1700   73 80  210/  3/  4 1014.6
MOKUOLOE         1636   79 81   80/  6/  9 1015.0R
NAWILIWILI       1700   74     280/  4/  5 1015.4
WHOTS BUOY       NOT AVBL
BUOY 51028       NOT AVBL
$$

......................KEY........................................
  SKY/WX - SKY CONDITIONS/PRESENT WEATHER
  TMP    - TEMPERATURE IN FAHRENHEIT
  DWPT   - DEWPOINT IN FAHRENHEIT
  RH     - RELATIVE HUMIDITY IN PERCENT
  WIND   - DIRECTION AND SPEED /MPH FOR ISLANDS...KTS FOR BUOYS/
  PRES   - MEAN SEA LEVEL PRESSURE IN INCHES OF HG
  VSB    - VISIBILITY IN MILES
  HX     - HEAT INDEX
  WCI    - WIND CHILL INDEX
  VRB    - VARIABLE WIND DIRECTION
  N/A    - NOT AVAILABLE




USA.gov is the U.S. government's official web portal to all federal, state and local government web resources and services.